Overview Statistics Trail Chart Weather Telemetry Raw packets
 

This is the latest recevied weather packets stored in our database for station/object K0QED. If no packets are shown the sender has not sent any weather packets the latest 10 day(s).

<< 78 79 80 81 82 83 84 >>
Time Temp. Humidity Pressure Rain* Wind** Luminosity Snow
1788055187 21.11° C 41% 1025.4 hPa 0 mm - 0 W/m² -
1788054882 21.11° C 44% 1025.5 hPa 0 mm - 0 W/m² -
1788054577 21.11° C 43% 1025.6 hPa 0 mm - 0 W/m² -
1788054273 20.56° C 41% 1025.6 hPa 0 mm - 0 W/m² -
1788053970 18.89° C 53% 1025.2 hPa 0 mm - 0 W/m² -
1788053665 18.89° C 53% 1025.1 hPa 0 mm - 0 W/m² -
1788053360 19.44° C 54% 1025.2 hPa 0 mm - 2 W/m² -
1788053055 20° C 51% 1025 hPa 0 mm - 3 W/m² -
1788052751 20° C 50% 1024.9 hPa 0 mm - 5 W/m² -
1788052447 20° C 51% 1024.9 hPa 0 mm - 6 W/m² -
1788052146 20° C 51% 1024.7 hPa 0 mm - 12 W/m² -
1788051841 20° C 52% 1025 hPa 0 mm - 12 W/m² -
1788051535 20° C 52% 1025 hPa 0 mm - 11 W/m² -
1788051234 20° C 53% 1024.9 hPa 0 mm - 12 W/m² -
1788050933 20.56° C 51% 1024.9 hPa 0 mm - 15 W/m² -
1788050628 20.56° C 50% 1024.6 hPa 0 mm - 18 W/m² -
1788050328 21.11° C 49% 1024.9 hPa 0 mm - 20 W/m² -
1788050022 21.11° C 48% 1024.7 hPa 0 mm - 23 W/m² -
1788049720 21.11° C 49% 1024.7 hPa 0 mm - 27 W/m² -
1788049416 21.11° C 49% 1024.9 hPa 0 mm - 53 W/m² -
1788049111 21.67° C 48% 1024.9 hPa 0 mm - 32 W/m² -
1788048806 21.67° C 48% 1024.7 hPa 0 mm - 37 W/m² -
1788048506 21.11° C 47% 1024.9 hPa 0 mm - 42 W/m² -
1788048204 21.67° C 47% 1025 hPa 0 mm - 50 W/m² -
1788047901 22.22° C 46% 1024.9 hPa 0 mm - 70 W/m² -

* Rain latest hour (hover to see other rain measurements)
** Current wind speed in m/s (hover to see current wind gust speed)